Location: Metacom Observatory
(41.7315°N, 71.2698°W)
Time: 15:53:37
(UTC-05:00)

Tiangong 2 - Visible Passes

Search period start: 20 January 2018 00:00
Search period end: 30 January 2018 00:00
Orbit: 384 x 390 km, 42.8° (Epoch: 20 January)

Date Brightness Start Highest point End Pass type
(mag) Time Alt. Az. Time Alt. Az. Time Alt. Az.
20 Jan 3.2 04:52:38 27° ESE 04:52:38 27° ESE 04:54:38 10° E visible
20 Jan 1.1 06:25:10 10° W 06:28:23 81° N 06:31:35 10° E visible
21 Jan 1.1 05:29:09 59° SW 05:29:39 79° SSE 05:32:51 10° E visible
22 Jan 4.2 04:33:17 16° E 04:33:17 16° E 04:34:06 10° E visible
22 Jan 1.1 06:05:34 18° W 06:07:46 71° N 06:10:57 10° E visible
23 Jan 1.7 05:09:37 54° ENE 05:09:37 54° ENE 05:12:12 10° E visible
24 Jan 1.1 05:45:54 33° WNW 05:47:08 71° N 05:50:20 10° E visible
25 Jan 3.2 04:49:53 28° ENE 04:49:53 28° ENE 04:51:33 10° E visible
25 Jan 1.1 06:22:08 11° W 06:25:13 77° SSW 06:28:24 10° ESE visible
26 Jan 0.9 05:26:07 67° WNW 05:26:28 83° N 05:29:40 10° E visible
27 Jan 4.2 04:30:05 16° E 04:30:05 16° E 04:30:52 10° E visible
27 Jan 1.5 06:02:21 18° W 06:04:27 50° SSW 06:07:34 10° SE visible
28 Jan 1.7 05:06:21 53° SE 05:06:21 53° SE 05:08:56 10° ESE visible
29 Jan 2.2 05:42:39 25° WSW 05:43:36 31° SSW 05:46:29 10° SE visible
